User: anonymous
Location: Livonia
(42.3680°N, 83.3530°W)
Time: 01:14:36
(UTC-04:00)
Language:

MOZ.5/SAFIR/RUBIN 5/SL-8 - Orbit

View from above orbital plane
View from above orbital plane
View from above satellite
View from above satellite

Ground track
Ground track

The orbit data is extracted from the following two-line orbital elements,

1 28898U 05043G   14237.14189079  .00000199  00000-0  50989-4 0  9010
2 28898 097.8375 062.9064 0020524 175.3029 297.5908 14.59517166469984
Epoch (UTC): 25 August 2014 03:24:19
Eccentricity: 0.0020524
inclination: 97.8375°
perigee height: 680 km
apogee height: 709 km
right ascension of ascending node: 62.9064°
argument of perigee: 175.3029°
revolutions per day: 14.59517166
mean anomaly at epoch: 297.5908°
orbit number at epoch: 46998

The dashed part of the orbit path shows where the satellite is in the earth's shadow,  

DLR